Dewpoint
55 55 55 54 53 52 52 51 49 47 46 44 41 39 38 35 34 34 35 34 34 34
55 55 54 54 53 52 51 48 44 41 39 36 36 35 33 32 32 32 33 33 34 34
56 55 55 54 53 51 47 41 37 36 34 33 32 31 32 32 33 32 33 34 33 33
56 56 55 54 51 47 40 36 33 32 31 30 30 31 31 31 32 31 32 32 32 32
57 55 53 49 45 39 37 33 31 30 29 28 29 28 28 27 29 29 29 30 31 31
53 52 49 45 39 36 32 29 29 28 28 28 28 28 28 29 29 29 29 29 29 29
48 47 43 37 34 32 30 29 29 29 29 29 29 29 29 29 29 29 29 28 27 27
41 39 36 34 34 31 31 31 31 30 31 31 30 29 29 29 28 27 26 26 27 29
37 35 35 33 33 33 33 33 33 33 33 31 30 32 31 30 28 25 23 24 26 27
36 35 34 33 33 33 33 34 33 33 33 33 35 35 32 28 24 23 25 25 24 23
35 34 33 34 33 32 32 31 31 31 31 32 34 32 28 25 23 23 24 25 23 24
33 32 32 31 29 28 27 28 28 29 30 31 31 30 26 23 23 23 24 24 23 24
32 31 30 28 27 26 25 24 26 26 26 28 27 28 26 24 23 23 23 23 23 23
29 27 26 25 24 23 22 22 22 23 23 24 25 26 26 25 24 24 22 21 21 23
Wind_Speed
19 17 16 18 17 16 15 14 14 12 11 12 12 12 11 10 9 9 9 9 8 7
20 19 18 17 17 16 13 12 15 14 14 14 14 14 12 11 11 10 10 9 8 8
23 22 20 19 20 18 15 18 17 15 15 15 14 13 13 12 10 12 8 7 8 7
21 20 21 20 18 19 18 19 19 18 16 16 15 13 13 12 12 12 11 8 7 7
20 19 20 20 20 20 20 18 19 18 17 15 14 12 14 12 11 13 11 10 7 5
19 21 22 20 20 21 21 20 19 19 19 17 14 13 11 11 11 12 10 9 6 4
20 19 20 19 20 20 20 21 19 19 18 20 18 14 12 12 11 11 9 9 6 4
14 16 17 19 21 20 21 20 22 15 16 18 19 16 13 11 11 9 11 6 5 5
19 19 18 20 21 24 21 20 22 22 11 15 15 17 17 13 10 9 9 4 5 5
19 19 20 20 24 23 23 20 19 19 17 14 15 18 17 14 10 9 7 5 6 4
20 21 21 22 22 23 19 22 22 18 17 17 17 17 16 13 11 8 7 6 4 3
22 24 23 22 23 21 23 19 20 18 17 18 16 16 13 12 8 8 7 5 4 5
22 23 23 22 24 19 19 20 18 17 15 17 16 15 12 9 8 7 4 3 4 7
21 23 23 22 22 21 22 20 19 18 13 15 13 12 12 10 7 5 4 4 5 6
Wind_Direction
183 179 177 175 172 174 176 172 157 150 142 136 128 123 118 109 102 103 99 97 87 88
182 176 180 179 176 176 170 156 149 149 142 136 131 133 130 123 116 114 115 109 103 91
188 184 180 174 176 172 160 150 149 147 142 137 136 133 128 121 121 113 97 93 100 97
187 184 174 174 172 164 153 154 151 147 144 145 142 139 133 131 129 117 112 105 99 92
180 169 166 164 162 156 153 153 147 143 139 135 137 137 138 134 132 124 124 114 106 91
171 169 168 164 157 153 149 146 143 140 138 133 132 126 119 118 125 123 120 113 103 90
172 170 162 150 147 146 146 143 140 138 134 131 126 120 122 128 130 117 116 99 97 83
144 142 140 141 140 136 135 131 124 116 131 134 130 134 140 135 124 132 104 92 83 64
140 136 137 135 135 130 126 124 128 130 149 135 130 143 138 132 129 111 99 117 83 62
145 141 139 138 134 130 135 131 132 135 139 129 127 136 131 125 117 110 113 98 66 47
148 144 141 142 143 129 142 144 136 135 137 131 127 132 121 119 111 119 104 84 57 25
150 145 144 144 140 138 135 139 134 134 132 121 132 125 122 110 135 107 93 66 38 15
151 148 147 143 134 138 129 128 128 122 117 128 117 121 122 133 108 99 78 56 38 11
148 144 139 134 131 134 131 127 127 119 119 111 117 134 125 109 102 98 68 39 11 359